Weather Roundup
Issued by NWS

Home | Current Version | Previous Version | Text Only | Print | Product List | Glossary On
Versions: 1 2 3 4 5 6 7 8 9 10 11 12 13 14 15 16 17 18 19 20 21 22 23 24 25 26 27 28 29 30 31 32 33 34 35 36 37 38 39 40 41 42 43 44 45 46 47 48 49 50
000
NZUS93 KARX 281410
HRRWXR

CURRENT HOURLY OBSERVATIONS ACROSS
MUCH OF THE UPPER MISSISSIPPI VALLEY
NATIONAL WEATHER SERVICE LA CROSSE WI
900 AM CDT MON JUL 28 2014


...SOUTHEAST MINNESOTA...


CITY           SKY/WX    TMP DP  RH WIND       PRES   REMARKS
ROCHESTER      SUNNY     64  57  78 N6        30.22R
ROCHESTER/MAYO PTSUNNY   60  55  83 NW5       30.20S
WINONA         MOSUNNY   64  55  72 N3        30.18R
AUSTIN         CLOUDY    64  57  77 N6        30.20S
ALBERT LEA     CLOUDY    64  59  82 NW5       30.21S
DODGE CENTER   PTSUNNY   64  59  82 N7        30.20S
PRESTON        CLOUDY    60  60  99 NW5       30.20S
OWATONNA       CLOUDY    64  59  82 NW8       30.21S
FARIBAULT      CLOUDY    66  57  72 NW5       30.21R
$$

...ELSEWHERE IN MINNESOTA...


CITY           SKY/WX    TMP DP  RH WIND       PRES   REMARKS
MINNEAPOLIS    CLOUDY    65  57  75 N7        30.20R
INTNL FALLS    SUNNY     64  58  80 NW6       30.20S
DULUTH         MOSUNNY   64  54  69 NW7       30.18S
RED WING       CLOUDY    64  59  82 CALM      30.18S
REDWOOD FALLS  CLOUDY    64  61  90 NW6       30.24R
MANKATO        CLOUDY    64  57  77 NW8       30.22R
WORTHINGTON    CLOUDY    61  57  88 N10       30.27R
FAIRMONT       CLOUDY    64  57  77 NW7       30.24R
$$

...SOUTHWEST WISCONSIN...


CITY           SKY/WX    TMP DP  RH WIND       PRES   REMARKS
LA CROSSE      NOT AVBL
PRAIRIE DU CHI SUNNY     64  51  63 NW14G20   30.17R
BOSCOBEL       SUNNY     67  52  58 VRB5      30.17R
LONE ROCK      SUNNY     66  51  58 NW6       30.15R
PLATTEVILLE    SUNNY     62  53  71 N12       30.16S
FORT MC COY    SUNNY     61  52  72 N6        30.18R
CAMP DOUGLAS   PTSUNNY   61  55  82 NW8       30.16R
VIROQUA        FAIR      61  54  76 N7        30.18R
WIS DELLS      SUNNY     61  49  65 N3        30.14R
$$

...ELSEWHERE IN WISCONSIN...


CITY           SKY/WX    TMP DP  RH WIND       PRES   REMARKS
MILWAUKEE      MOSUNNY   59  44  57 N17G29    30.08R
MADISON        MOSUNNY   62  51  67 N12       30.13R
GREEN BAY      SUNNY     59  46  62 N13       30.11R
EAU CLAIRE     PTSUNNY   66  55  67 NW3       30.17S
BLACK RVR FLS  FAIR      62  53  71 N3        30.17R
MEDFORD        MOSUNNY   58  51  77 NW10      30.16S
WAUSAU         MOSUNNY   58  51  78 NW8       30.13S
WIS RAPIDS     SUNNY     61  50  67 MISG      30.16R
MARSHFIELD     SUNNY     61  52  72 NW9       30.15R
RICE LAKE      CLOUDY    61  56  84 CALM      30.20S
$$

...NORTHEAST IOWA...


CITY           SKY/WX    TMP DP  RH WIND       PRES   REMARKS
WATERLOO       SUNNY     64  56  75 N12       30.18R
DUBUQUE        SUNNY     62  51  67 N15       30.15R
DECORAH        CLOUDY    64  57  77 VRB6      30.18S
MASON CITY     CLOUDY    65  56  72 N9        30.23R
CHARLES CITY   PTSUNNY   64  57  77 N7        30.21R
OELWEIN        SUNNY     63  55  77 N10       30.20R
$$

...ELSEWHERE IN IOWA...


CITY           SKY/WX    TMP DP  RH WIND       PRES   REMARKS
DES MOINES     MOSUNNY   68  55  63 NE7       30.20R
IOWA CITY      SUNNY     66  54  65 N10       30.17R
FORT DODGE     PTSUNNY   64  59  82 NE6       30.23S
MARSHALLTOWN   MOSUNNY   65  56  72 N12       30.19S
CEDAR RAPIDS   SUNNY     65  52  62 N13       30.16R
$$

...NORTHERN ILLINOIS...


CITY           SKY/WX    TMP DP  RH WIND       PRES   REMARKS
CHICAGO-OHARE  MOSUNNY   63  47  55 N16       30.05R
DUPAGE         SUNNY     63  49  60 N15       30.06R
CHICAGO-MIDWAY MOSUNNY   64  50  60 N15       30.05R
MOLINE         SUNNY     65  51  60 N12G17    30.13R
ROCKFORD       MOSUNNY   62  48  60 N21G26    30.12R
STERLING       SUNNY     64  52  63 N14G20    30.12R
PEORIA         SUNNY     66  52  60 N8G18     30.10R
$$

NOTE: "FAIR" INDICATES FEW OR NO CLOUDS BELOW 12,000 FEET WITH NO
SIGNIFICANT WEATHER AND/OR OBSTRUCTIONS TO VISIBILITY. WIND
SPEEDS ARE IN MILES-PER-HOUR.



USA.gov is the U.S. government's official web portal to all federal, state and local government web resources and services.